Regional Weather Roundup
Issued by NWS

Home | Current Version | Previous Version | Graphics & Text | Print | Product List | Glossary On
Versions: 1 2 3 4 5 6 7 8 9 10 11 12 13 14 15 16 17 18 19 20 21 22 23 24 25 26 27 28 29 30 31 32 33 34 35 36 37 38 39 40 41 42 43 44 45 46 47 48 49 50
000
ASUS44 KMEG 272100
RWRTN
TENNESSEE HOURLY STATE WEATHER ROUNDUP
NATIONAL WEATHER SERVICE MEMPHIS TN
400 PM CDT MON MAR 27 2017

TNZ002-004-019-021-049-052-054-088>092-272200-
WEST TENNESSEE

CITY           SKY/WX    TMP DP  RH WIND       PRES   REMARKS
MEMPHIS INTL   PTSUNNY   81  62  52 SW17G29   29.77F
NWS MEMPHIS      N/A     79 N/A N/A MISG        N/A
JACKSON        PTSUNNY   71  63  75 N16G22    29.77F THUNDER
DYERSBURG      LGT RAIN  62  60  93 N8        29.81R
PARIS          CLOUDY    55  54  94 E10       29.80F
$$

TNZ008-025-027-028-033-062-065-066-272200-
NORTH MIDDLE TENNESSEE

CITY           SKY/WX    TMP DP  RH WIND       PRES   REMARKS
NASHVILLE      TSTM      73  58  59 SW15G25   29.85R
CLARKSVILLE    TSTM      57  54  89 W6        29.88S FOG
SMYRNA         TSTM      75  58  55 SW14G20   29.87R
CROSSVILLE     MOSUNNY   72  54  53 S12G20    29.92F
$$

TNZ061-075-076-078-094-096-097-272200-
SOUTH MIDDLE TENNESSEE

CITY           SKY/WX    TMP DP  RH WIND       PRES   REMARKS
TULLAHOMA      MOSUNNY   72  54  53 SW10      29.89S
WINCHESTER     PTSUNNY   75  55  50 S8        29.88F
COLUMBIA       PTSUNNY  N/A N/A N/A SE8       29.87R
SHELBYVILLE    PTSUNNY   73  61  64 S7        29.88S
$$

TNZ017-018-042-046-047-272200-
NORTHEAST TENNESSEE

CITY           SKY/WX    TMP DP  RH WIND       PRES   REMARKS
TRI CITIES     CLOUDY    72  53  51 SW8       29.96F
$$

TNZ012-013-036-069-073-074-272200-
CENTRAL EAST TENNESSEE

CITY           SKY/WX    TMP DP  RH WIND       PRES   REMARKS
KNOXVILLE      CLOUDY    74  57  55 SW13      29.90F
OAK RIDGE      MOSUNNY   76  55  48 S8G18     29.91F
GATLINBURG     MOSUNNY   75  55  50 VRB6      29.91F
$$

TNZ083-085-099-272200-
SOUTHEAST TENNESSEE

CITY           SKY/WX    TMP DP  RH WIND       PRES   REMARKS
CHATTANOOGA    CLOUDY    76  55  48 S7        29.90F
$$

SKY/WX REPORTED AS FAIR MEANS FEW OR NO CLOUDS BELOW
12 THOUSAND FEET.




USA.gov is the U.S. government's official web portal to all federal, state and local government web resources and services.